Weather History for KFFO - September, 2013

Change the Weather History Date:

Monday, September 9, 2013

  Actual Average Record
Temperature  
Mean Temperature 78 °F -  
Max Temperature 91 °F 77 °F 95 °F (2002)
Min Temperature 64 °F 55 °F 39 °F (1998)
Cooling Degree Days 12    
Growing Degree Days 28 (Base 50)    
Moisture  
Dew Point 66 °F    
Average Humidity 68    
Maximum Humidity 94    
Minimum Humidity 43    
Precipitation  
Precipitation 0.00 in - - ()
Sea Level Pressure  
Sea Level Pressure 30.01 in    
Wind  
Wind Speed 7 mph (SSE)    
Max Wind Speed 16 mph    
Max Gust Speed 23 mph    
Visibility 9 miles    
Events      
Averages and records for this station are not official NWS values.
T = Trace of Precipitation, MM = Missing Value Source: NWS Daily Summary

Daily Weather History Graph

Daily Weather History Graph

Search for Another Location

Airport or City:

Trip Planner

Search our weather history database for the weather conditions in past years. The results will help you decide how hot, cold, wet, or windy it might be!

Date:

Astronomy

Sep. 09, 2013 Rise Set
Actual Time 7:11 AM EDT 7:54 PM EDT
Civil Twilight 6:44 AM EDT 8:21 PM EDT
Nautical Twilight 6:12 AM EDT 8:53 PM EDT
Astronomical Twilight 5:38 AM EDT 9:26 PM EDT
Moon 11:31 AM EDT (9/9) 10:10 PM EDT (9/9)
Length of Visible Light 13h 36m
Length of Day
12h 42m
Waxing Crescent, 19% of the Moon is Illuminated
Sep 9
Waxing Crescent
Sep 12
First Quarter
Sep 19
Full
Sep 26
Last Quarter
Oct 4
New

Hourly Weather History & Observations

Time (EDT) Temp. Heat Index Dew Point Humidity Pressure Visibility Wind Dir Wind Speed Gust Speed Precip Events Conditions
12:58 AM 68.2 °F - 63.5 °F 85% 30.03 in 0.5 mi ENE 5.8 mph - N/A   Haze
1:00 AM 68.0 °F - 62.6 °F 83% 30.03 in 10.0 mi ENE 6.9 mph - N/A   Clear
1:58 AM 67.6 °F - 63.3 °F 86% 30.03 in 10.0 mi ENE 2.3 mph - N/A   Clear
2:58 AM 66.9 °F - 63.1 °F 88% 30.03 in 10.0 mi North 2.3 mph - N/A   Clear
3:58 AM 66.2 °F - 63.0 °F 89% 30.02 in 10.0 mi ENE 2.3 mph - N/A   Clear
4:58 AM 66.2 °F - 63.3 °F 90% 30.02 in 10.0 mi NNE 2.3 mph - N/A   Clear
5:58 AM 65.7 °F - 63.3 °F 92% 30.01 in 10.0 mi SE 3.5 mph - N/A   Clear
6:48 AM 64.4 °F - 62.6 °F 94% 30.03 in 6.0 mi ENE 2.3 mph - N/A   Mostly Cloudy
6:58 AM 66.2 °F - 62.6 °F 88% 30.03 in 6.0 mi East 3.5 mph - N/A   Scattered Clouds
7:58 AM 65.8 °F - 63.3 °F 92% 30.04 in 10.0 mi Calm Calm - N/A   Clear
8:08 AM 66.2 °F - 64.4 °F 94% 30.05 in 1.2 mi Calm Calm - N/A   Clear
8:58 AM 69.3 °F - 65.7 °F 88% 30.05 in 10.0 mi SE 2.3 mph - N/A   Clear
9:58 AM 74.8 °F - 67.5 °F 78% 30.05 in 10.0 mi South 5.8 mph - N/A   Partly Cloudy
10:47 AM 80.6 °F 83.2 °F 68.0 °F 65% 30.05 in 10.0 mi SSW 6.9 mph - N/A   Partly Cloudy
10:49 AM 80.6 °F 83.2 °F 68.0 °F 65% 30.05 in 10.0 mi SSW 6.9 mph - N/A   Scattered Clouds
10:58 AM 80.6 °F 83.5 °F 68.5 °F 67% 30.04 in 10.0 mi South 5.8 mph - N/A   Partly Cloudy
11:58 AM 85.1 °F 89.1 °F 69.1 °F 59% 30.04 in 10.0 mi SW 10.4 mph - N/A   Partly Cloudy
12:44 PM 87.8 °F 91.4 °F 68.0 °F 52% 30.04 in 10.0 mi South 11.5 mph 20.7 mph N/A   Partly Cloudy
12:58 PM 87.1 °F 90.6 °F 68.2 °F 53% 30.03 in 10.0 mi SSW 13.8 mph - N/A   Partly Cloudy
1:58 PM 88.7 °F 92.6 °F 68.4 °F 51% 30.01 in 10.0 mi South 11.5 mph - N/A   Clear
2:35 PM 89.6 °F 92.2 °F 66.2 °F 46% 30.01 in 10.0 mi SW 15.0 mph - N/A   Partly Cloudy
2:39 PM 89.6 °F 93.4 °F 68.0 °F 49% 30.00 in 10.0 mi South 13.8 mph - N/A   Partly Cloudy
2:41 PM 89.6 °F 93.4 °F 68.0 °F 49% 30.00 in 10.0 mi South 13.8 mph - N/A   Partly Cloudy
2:58 PM 90.0 °F 92.8 °F 66.7 °F 46% 29.99 in 10.0 mi South 12.7 mph 18.4 mph N/A   Clear
3:58 PM 90.7 °F 93.6 °F 66.7 °F 45% 29.97 in 10.0 mi South 16.1 mph - N/A   Partly Cloudy
4:33 PM 91.4 °F 94.0 °F 66.2 °F 43% 29.98 in 10.0 mi SSW 15.0 mph 23.0 mph N/A   Clear
4:58 PM 91.0 °F 93.8 °F 66.0 °F 44% 29.96 in 10.0 mi South 15.0 mph 20.7 mph N/A   Clear
5:58 PM 89.6 °F 92.6 °F 67.1 °F 47% 29.96 in 10.0 mi SSE 9.2 mph - N/A   Partly Cloudy
6:58 PM 88.2 °F 89.6 °F 64.6 °F 45% 29.96 in 10.0 mi South 11.5 mph - N/A   Partly Cloudy
7:58 PM 84.6 °F 87.4 °F 67.1 °F 56% 29.97 in 10.0 mi South 10.4 mph - N/A   Clear
8:58 PM 81.9 °F 84.6 °F 67.8 °F 62% 29.99 in 10.0 mi South 6.9 mph - N/A   Clear
9:58 PM 80.4 °F 83.1 °F 68.2 °F 66% 30.01 in 10.0 mi SSE 8.1 mph - N/A   Clear
10:58 PM 78.6 °F - 68.2 °F 70% 30.01 in 10.0 mi South 8.1 mph - N/A   Clear
11:58 PM 77.7 °F - 68.5 °F 73% 30.02 in 10.0 mi SSE 5.8 mph - N/A   Clear